User: anonymous   Login
Location: Abraham Lincoln Continuation High School
(33.9711°N, 117.3662°W)
Time: 18:31:20
(UTC+00:00)
Language:

Cosmos 1535 Rocket - Orbit

View from above orbital plane
View from above orbital plane
View from above satellite
View from above satellite

Ground track
Ground track

The orbit data is extracted from the following two-line orbital elements,

1 14680U 84010B   21169.63995576 -.00000003  00000-0 -18215-4 0  9997
2 14680  82.9571  37.1310 0036530 284.6760 125.8674 13.76513967876998
Epoch (UTC): 18 June 2021 15:21:32
Eccentricity: 0.0036530
inclination: 82.9571°
perigee height: 949 km
apogee height: 1003 km
right ascension of ascending node: 37.1310°
argument of perigee: 284.6760°
revolutions per day: 13.76513967
mean anomaly at epoch: 125.8674°
orbit number at epoch: 87699

The dashed part of the orbit path shows where the satellite is in the earth's shadow,  

DLR